Terminal Aerodrome Forecast
Issued by NWS Billings, MT

Home | Current Version | Previous Version | Text Only | Print | Product List | Glossary On
Versions: 1 2 3 4 5 6 7 8 9 10 11 12 13 14 15 16 17 18 19 20 21 22 23 24 25 26 27 28 29 30 31 32 33 34 35 36 37 38 39 40 41 42 43 44 45 46 47 48 49 50
449
FTUS45 KBYZ 242339
TAFBIL
TAF
KBIL 242339Z 2500/2524 32020G35KT P6SM VCSH FEW050 SCT100 BKN150
     FM250200 32015G25KT P6SM FEW050 SCT100 SCT200
     FM250500 27011KT P6SM FEW100 SCT200=

USA.gov is the U.S. government's official web portal to all federal, state and local government web resources and services.